EW8311 Weather Reports


Display with metric or nautical units.
time (UTC)temp
F
wind
direction
speed
MPH
gust
MPH
rain 1hr
in
rain 24hr
in
rain mn
in
humidity
%
barometer
mb
20260507061529 62 97 0.0 0.0 0.00 0.00 0.00 42 1009.7
20260507060029 64 97 0.0 1.0 0.00 0.00 0.00 35 1009.7
20260507054528 63 97 0.0 1.0 0.00 0.00 0.00 37 1009.5
20260507053028 62 97 0.0 0.0 0.00 0.00 0.00 46 1009.4
20260507051527 63 97 0.0 1.0 0.00 0.00 0.00 44 1009.4
20260507050035 63 100 0.0 0.0 0.00 0.00 0.00 40 1009.2
20260507044526 66 100 0.0 1.0 0.00 0.00 0.00 34 1009.2
20260507043024 65 100 0.0 0.0 0.00 0.00 0.00 34 1009.2
20260507041538 66 100 0.0 0.0 0.00 0.00 0.00 34 1009.1
20260507040023 66 100 0.0 0.0 0.00 0.00 0.00 37 1009.0
20260507034521 68 100 0.0 0.0 0.00 0.00 0.00 34 1008.8
20260507033021 67 100 0.0 0.0 0.00 0.00 0.00 35 1008.6
20260507031520 69 100 0.0 3.0 0.00 0.00 0.00 30 1008.6
20260507030019 68 314 0.0 0.0 0.00 0.00 0.00 34 1008.4
20260507024519 70 313 0.0 1.0 0.00 0.00 0.00 30 1008.3
20260507023018 71 313 0.0 3.0 0.00 0.00 0.00 25 1008.1
20260507021518 72 323 0.0 0.0 0.00 0.00 0.00 25 1008.1
20260507020017 74 323 0.0 4.0 0.00 0.00 0.00 24 1007.9
20260507014525 76 306 2.0 5.0 0.00 0.00 0.00 22 1007.9
20260507013031 77 310 2.0 5.0 0.00 0.00 0.00 22 1007.9
20260507011530 77 314 3.0 8.0 0.00 0.00 0.00 21 1007.9
20260507010014 77 332 3.0 8.0 0.00 0.00 0.00 21 1007.9
20260507004517 78 316 2.0 9.0 0.00 0.00 0.00 21 1007.9
20260507003012 79 291 3.0 7.0 0.00 0.00 0.00 21 1007.9
20260507001513 79 333 2.0 5.0 0.00 0.00 0.00 22 1007.9
20260507000022 78 303 3.0 8.0 0.00 0.00 0.00 21 1007.9
20260506234512 78 326 5.0 11.0 0.00 0.00 0.00 22 1007.9
20260506233010 79 307 5.0 9.0 0.00 0.00 0.00 21 1007.9
20260506231508 80 271 1.0 7.0 0.00 0.00 0.00 22 1008.0
20260506230008 80 257 4.0 9.0 0.00 0.00 0.00 22 1008.1
20260506224505 78 323 4.0 11.0 0.00 0.00 0.00 23 1008.2
20260506223005 79 307 4.0 9.0 0.00 0.00 0.00 23 1008.3
20260506221604 79 236 1.0 7.0 0.00 0.00 0.00 23 1008.4
20260506220057 77 270 2.0 12.0 0.00 0.00 0.00 24 1008.6
20260506214607 76 284 2.0 9.0 0.00 0.00 0.00 26 1008.7
20260506213053 77 313 5.0 11.0 0.00 0.00 0.00 26 1008.9
20260506211550 77 319 2.0 6.0 0.00 0.00 0.00 27 1009.2
20260506210050 76 323 4.0 6.0 0.00 0.00 0.00 27 1009.3
20260506204549 76 289 1.0 7.0 0.00 0.00 0.00 28 1009.5
20260506203049 76 126 2.0 5.0 0.00 0.00 0.00 28 1009.7
20260506201544 75 333 1.0 4.0 0.00 0.00 0.00 30 1009.8
20260506200117 75 262 1.0 8.0 0.00 0.00 0.00 30 1010.0
20260506194543 74 316 2.0 6.0 0.00 0.00 0.00 31 1010.2
20260506193045 75 316 2.0 5.0 0.00 0.00 0.00 31 1010.4
20260506191541 74 106 3.0 8.0 0.00 0.00 0.00 29 1010.6
20260506190039 73 247 1.0 6.0 0.00 0.00 0.00 31 1010.8
20260506184536 72 256 2.0 7.0 0.00 0.00 0.00 32 1010.8
20260506183034 71 251 2.0 6.0 0.00 0.00 0.00 33 1011.0
20260506181535 70 322 1.0 6.0 0.00 0.00 0.00 37 1011.2
20260506180038 69 327 3.0 6.0 0.00 0.00 0.00 35 1011.4
20260506174529 69 279 1.0 6.0 0.00 0.00 0.00 37 1011.4
20260506173024 68 328 2.0 6.0 0.00 0.00 0.00 38 1011.4
20260506171537 67 317 1.0 5.0 0.00 0.00 0.00 39 1011.3
20260506170018 67 272 1.0 4.0 0.00 0.00 0.00 41 1011.5
20260506164516 65 279 3.0 6.0 0.00 0.00 0.00 45 1011.4
20260506163019 64 277 2.0 6.0 0.00 0.00 0.00 48 1011.3
20260506161519 64 251 0.0 4.0 0.00 0.00 0.00 48 1011.2
20260506160010 64 295 1.0 4.0 0.00 0.00 0.00 50 1011.2
20260506154504 63 280 1.0 5.0 0.00 0.00 0.00 52 1011.1
20260506153105 62 127 1.0 4.0 0.00 0.00 0.00 52 1011.1
20260506151558 61 262 0.0 2.0 0.00 0.00 0.00 54 1011.2
20260506150058 60 339 0.0 2.0 0.00 0.00 0.00 55 1011.1
20260506144554 59 346 1.0 3.0 0.00 0.00 0.00 57 1011.1
20260506143051 58 328 0.0 1.0 0.00 0.00 0.00 59 1011.2
20260506141549 58 260 0.0 1.0 0.00 0.00 0.00 61 1011.1
20260506140049 57 263 0.0 0.0 0.00 0.00 0.00 63 1011.1
20260506134611 56 115 0.0 0.0 0.00 0.00 0.00 66 1010.9
20260506133044 52 115 0.0 0.0 0.00 0.00 0.00 76 1011.0
20260506131601 50 115 0.0 0.0 0.00 0.00 0.00 79 1010.8
20260506130043 49 115 0.0 0.0 0.00 0.00 0.00 80 1010.8
20260506124539 49 115 0.0 0.0 0.00 0.02 0.00 80 1010.6
20260506123043 49 115 0.0 0.0 0.00 0.02 0.00 79 1010.5
20260506121537 50 115 0.0 0.0 0.00 0.02 0.00 79 1010.3
20260506120032 51 115 0.0 0.0 0.00 0.02 0.00 75 1010.2
20260506114534 52 115 0.0 0.0 0.00 0.03 0.00 73 1010.0
20260506113032 53 115 0.0 0.0 0.00 0.03 0.00 69 1010.0
20260506111524 53 115 0.0 0.0 0.00 0.03 0.00 69 1009.9
20260506110022 52 115 0.0 0.0 0.00 0.03 0.00 70 1009.8
20260506104519 53 115 0.0 0.0 0.00 0.05 0.00 69 1009.8
20260506103022 55 115 0.0 1.0 0.00 0.05 0.00 65 1009.7
20260506101513 55 116 0.0 2.0 0.00 0.05 0.00 64 1009.5
20260506100016 55 120 0.0 1.0 0.00 0.05 0.00 64 1009.3
20260506094515 55 120 0.0 2.0 0.00 0.10 0.00 61 1009.2
20260506093007 55 103 0.0 1.0 0.00 0.10 0.00 59 1009.2
20260506091506 56 103 0.0 0.0 0.00 0.10 0.00 58 1009.0
20260506090005 56 103 0.0 2.0 0.00 0.10 0.00 58 1009.1
20260506084502 57 102 1.0 2.0 0.00 0.15 0.00 57 1009.1
20260506083124 57 117 0.0 2.0 0.00 0.15 0.00 57 1009.1
20260506081604 57 101 0.0 2.0 0.00 0.15 0.00 58 1009.2
20260506080104 57 116 0.0 0.0 0.00 0.15 0.00 58 1009.3
20260506073053 57 91 0.0 1.0 0.00 0.21 0.00 54 1009.2
20260506071554 58 105 0.0 2.0 0.00 0.21 0.00 52 1009.2